Temperature
18 18 18 18 18 18 18 18 18 18 18 18 18 18 18 18 18 18 17 17 17 17 17 17 17 17 17 17 17 16 16 16 16 16 16 16 16 16 16 16 16 16 16
18 18 18 18 18 18 18 18 18 18 18 18 18 18 18 18 18 18 18 17 17 17 17 17 17 17 17 16 16 16 16 16 16 16 16 16 16 16 16 16 16 16 16
18 18 18 18 18 18 18 18 18 18 18 18 18 18 18 17 17 17 17 17 17 17 17 17 17 17 16 16 16 16 16 16 16 16 16 16 16 16 16 15 15 15 15
18 18 18 18 18 18 18 18 18 18 18 18 18 18 18 17 17 17 17 17 17 17 17 17 17 16 16 17 16 16 16 16 16 16 16 16 15 15 15 15 15 15 15
18 18 18 18 18 18 18 18 18 18 18 18 18 18 17 17 17 17 17 17 17 17 17 16 16 16 16 16 16 16 16 16 16 16 16 15 15 15 15 15 15 15 15
18 18 18 18 18 18 18 18 18 18 18 18 18 17 17 17 17 17 17 17 17 17 17 17 16 16 16 16 16 16 16 16 16 15 15 15 15 15 15 15 15 15 15
18 18 18 18 18 18 18 18 18 18 18 17 17 17 17 17 17 17 17 17 17 17 16 16 16 16 16 16 16 16 16 16 16 15 15 15 15 15 15 15 14 14 14
18 18 18 18 18 18 18 18 18 18 18 17 17 17 17 17 17 17 17 16 16 16 16 16 16 16 16 16 16 16 16 15 15 15 15 15 15 15 15 14 14 14 14
18 18 18 18 18 18 18 18 18 18 18 17 17 17 17 17 16 16 16 16 16 16 16 16 16 16 16 16 16 15 15 15 15 15 15 15 14 14 14 14 14 14 14
18 18 18 18 18 18 18 18 18 17 17 17 17 17 17 17 16 16 16 16 16 16 16 16 16 16 15 15 15 15 15 15 15 14 14 14 14 14 14 14 14 14 14
18 18 18 18 18 18 18 18 17 17 17 17 17 17 17 17 17 16 15 15 16 15 15 15 15 15 15 15 15 15 15 15 14 14 14 14 14 14 13 13 13 13 13
18 18 18 18 18 18 18 18 18 17 17 17 17 17 17 17 17 16 16 15 15 15 15 15 15 15 15 15 15 15 15 14 14 14 14 14 13 13 13 13 13 13 13
18 18 18 18 18 18 18 17 17 17 17 17 17 17 17 17 17 16 16 15 15 15 15 15 14 15 14 14 14 14 14 14 14 14 13 13 13 13 13 13 13 13 12
18 18 18 18 18 17 17 17 17 17 17 17 17 17 17 16 16 16 16 16 15 14 14 14 14 14 14 14 14 14 14 14 13 13 13 13 13 13 13 12 12 12 12
18 18 18 18 17 17 17 17 17 17 17 17 17 16 16 16 16 16 16 16 15 14 14 14 14 14 14 14 14 13 13 13 13 13 13 12 12 12 12 12 12 12 12
18 18 18 17 17 17 17 17 17 17 17 17 16 16 16 16 16 16 15 15 15 15 14 14 14 14 14 13 13 13 13 13 13 12 12 12 12 12 12 12 11 11 11
18 18 18 17 17 17 17 17 17 17 17 16 16 16 16 16 16 15 15 15 15 15 14 14 14 13 13 13 13 13 13 12 12 12 12 12 12 11 11 11 11 11 11
18 18 17 17 17 17 17 16 16 16 16 16 16 16 15 15 15 15 15 15 15 15 14 14 13 13 13 13 12 12 12 12 12 12 12 12 11 11 11 11 11 11 11
18 17 17 17 17 17 16 16 16 16 16 16 16 15 15 15 15 15 15 15 14 14 14 14 13 13 12 12 12 12 12 12 12 11 11 11 11 11 11 11 11 10 10
18 17 17 17 17 16 16 16 16 16 15 15 15 15 15 15 15 15 14 14 14 14 14 13 13 13 12 12 12 12 11 11 11 11 11 11 11 11 11 11 10 10 10
17 17 17 17 17 16 16 16 16 15 15 15 15 15 15 15 14 14 14 14 14 14 13 13 13 12 12 12 11 11 11 11 11 11 11 11 10 10 10 10 10 10 10
17 17 17 17 16 16 16 16 15 15 15 15 15 15 14 14 14 14 14 14 14 14 13 13 13 12 12 12 12 11 11 11 10 10 10 10 10 10 10 10 10 10 10
17 17 17 17 16 16 16 15 15 15 15 15 14 14 14 14 14 14 14 14 13 13 13 13 13 13 12 12 12 11 11 11 11 10 10 10 10 10 10 10 10 10 10
17 17 17 17 16 16 16 15 15 15 15 15 14 14 14 14 14 14 14 14 13 13 13 13 13 12 12 12 11 11 11 11 10 10 10 10 10 10 10 10 10 9 9
17 17 17 17 16 16 16 15 15 15 15 14 14 14 14 14 14 13 13 13 13 13 12 12 12 12 12 11 11 11 11 10 10 10 10 10 10 10 10 10 10 9 9
17 17 17 17 16 16 16 15 15 15 15 14 14 14 14 14 14 13 13 13 13 13 12 12 12 12 11 11 11 11 11 10 10 10 10 10 10 10 9 10 10 9 9
Wind_Speed
2 2 2 2 2 2 2 2 1 1 1 1 3 4 4 7 8 8 8 12 12 11 11 11 11 11 11 10 10 10 9 9 8 8 8 7 7 8 8 8 8 8 9
3 2 1 1 2 2 2 3 2 1 1 1 2 3 4 6 7 8 8 9 10 10 10 10 11 10 10 10 10 10 9 9 9 9 8 8 8 7 7 7 8 8 8
4 3 1 1 1 1 1 2 2 2 1 2 1 2 3 4 5 6 7 7 7 8 9 10 10 10 10 10 10 9 9 8 8 9 9 9 8 7 7 7 7 7 8
5 4 2 1 1 1 2 2 2 1 1 1 1 1 1 2 4 5 5 6 6 6 7 9 9 8 7 8 9 9 9 9 9 9 9 8 9 8 7 6 6 6 6
4 4 2 1 1 1 1 1 1 2 1 1 1 1 1 1 2 4 4 5 6 5 5 6 7 7 7 6 6 7 7 7 8 8 8 8 8 8 7 6 6 5 6
4 3 2 1 1 1 1 1 1 1 1 1 1 2 1 1 1 2 3 3 4 5 5 5 5 5 5 5 5 5 6 6 6 6 6 6 6 7 7 6 5 5 5
3 3 1 1 1 1 2 2 2 1 0 2 2 2 3 2 1 0 1 2 2 4 4 4 4 3 3 4 4 5 5 6 6 6 5 5 5 5 5 6 6 6 5
4 3 2 1 1 1 1 1 2 1 1 1 2 1 1 3 3 1 1 1 1 2 3 4 4 4 3 3 3 4 5 6 6 6 6 5 4 4 4 4 4 4 5
3 3 3 2 2 2 2 2 2 3 2 2 2 3 2 2 1 2 2 1 1 1 1 3 4 4 4 4 3 3 4 5 6 6 6 5 4 4 4 3 3 3 2
2 3 3 3 2 2 2 2 2 2 2 2 2 2 2 3 2 0 2 2 2 1 1 2 3 4 4 4 4 5 4 4 5 6 5 5 5 5 4 3 3 3 4
1 1 2 2 2 1 2 1 1 1 2 2 2 1 1 1 2 2 1 1 1 1 1 2 2 3 4 5 5 5 5 5 5 5 5 5 4 4 4 4 4 4 5
1 1 1 1 1 1 1 1 2 2 2 2 1 1 1 2 2 3 3 2 1 1 1 1 2 2 3 4 5 6 6 6 6 5 5 5 5 5 4 4 4 4 4
1 1 0 1 0 0 1 1 1 1 1 1 1 1 1 1 2 2 3 2 1 0 1 1 1 3 3 4 5 6 6 7 7 6 5 4 4 4 4 4 4 4 4
2 1 1 1 1 1 1 1 1 1 0 0 0 0 0 0 1 2 3 3 1 0 1 0 1 2 3 5 6 7 6 7 7 6 5 5 5 5 5 5 5 4 4
1 1 2 2 1 1 1 1 1 0 0 0 0 0 1 0 1 1 2 3 4 2 2 1 1 0 3 4 6 7 6 7 7 7 7 6 6 6 6 6 6 6 5
1 2 2 2 1 2 2 2 1 1 2 1 0 1 1 0 0 1 1 1 2 3 2 1 1 1 3 4 6 6 6 6 7 7 8 8 7 6 6 6 6 5 5
3 3 3 2 2 2 2 2 1 2 2 1 1 1 1 1 1 1 1 1 2 2 2 0 1 1 2 3 4 5 6 5 5 7 7 7 7 7 6 6 5 5 5
3 3 3 3 2 2 2 2 1 1 2 1 1 1 0 1 1 1 1 1 2 2 3 3 1 1 2 3 4 4 4 4 4 5 6 6 6 6 6 5 5 4 4
3 3 3 3 2 2 2 1 1 1 1 1 1 1 0 1 1 0 1 2 2 2 3 4 2 1 2 3 3 2 3 2 3 4 4 4 5 5 5 5 4 4 4
4 4 3 3 3 2 1 1 1 2 1 1 1 1 1 1 1 1 2 2 3 3 3 4 3 2 2 2 2 2 1 1 1 3 3 3 4 3 3 4 4 4 3
5 4 4 3 2 2 1 2 2 2 2 1 1 1 1 2 2 2 2 3 4 4 4 3 3 2 2 2 2 2 2 1 0 1 1 2 2 2 3 4 3 4 4
4 4 4 3 2 2 2 3 3 2 2 2 1 0 1 3 3 4 5 5 5 6 5 4 3 3 3 3 3 3 3 2 1 1 2 1 2 1 4 5 5 5 5
5 4 4 4 3 2 3 3 3 2 2 2 2 2 1 2 3 3 4 4 3 4 6 6 5 4 5 5 5 3 3 3 2 3 2 2 1 2 5 6 8 8 7
5 5 4 4 4 3 4 5 4 3 2 2 2 3 3 2 2 4 4 4 3 1 2 3 4 5 5 5 6 6 5 3 0 1 3 2 2 3 4 6 9 10 10
5 5 4 5 5 4 4 5 5 3 2 2 2 3 4 3 3 5 5 4 2 1 1 3 4 4 5 7 7 4 3 3 1 2 2 2 2 2 2 3 8 11 12
6 5 5 5 5 5 6 7 6 4 3 2 1 1 3 4 5 6 5 4 3 1 1 2 2 2 2 4 6 6 5 4 2 2 3 3 2 1 1 3 4 7 9
Wind_Direction
166 181 197 195 197 203 196 186 181 195 176 173 163 159 155 161 167 167 173 181 184 185 187 188 186 189 190 193 197 200 202 206 206 205 206 208 206 209 212 211 210 209 210
168 172 179 191 205 210 199 180 181 168 159 137 139 155 159 164 165 170 179 186 189 190 192 192 192 193 194 196 202 206 208 210 208 208 209 209 209 209 205 206 208 209 210
155 155 138 159 210 205 188 137 133 120 95 95 103 125 144 155 164 173 178 182 190 196 200 202 201 203 204 206 203 203 201 203 204 207 208 208 207 209 209 210 208 211 216
150 149 137 173 218 132 125 118 124 102 64 71 81 85 116 138 160 168 173 182 191 202 211 211 211 208 212 211 211 207 205 208 210 209 209 210 208 206 208 209 209 211 213
156 147 157 193 190 114 109 128 119 141 139 113 104 65 91 123 153 160 170 179 184 190 199 211 211 201 209 211 209 205 205 207 208 209 210 209 205 201 203 205 208 214 217
171 147 158 191 159 123 90 100 139 137 149 141 97 51 17 12 128 152 173 173 182 188 192 192 191 199 207 210 211 207 205 203 199 200 201 197 194 196 198 200 202 208 217
172 154 147 164 154 152 170 153 142 111 107 124 97 43 13 7 360 225 155 155 165 172 162 164 173 180 194 206 207 203 196 190 187 186 186 184 185 193 199 199 205 210 213
180 167 164 180 173 154 144 149 143 140 202 159 142 126 14 358 2 1 81 144 156 151 153 155 141 141 139 138 146 172 179 182 176 176 172 166 163 165 177 182 193 206 214
188 180 172 181 185 173 185 200 185 175 209 237 177 154 165 212 300 352 15 63 103 112 129 129 129 135 139 128 126 150 175 186 182 175 165 161 160 155 149 144 144 140 159
199 194 194 188 194 190 194 210 193 193 182 227 250 211 187 172 170 280 342 6 48 92 132 130 123 137 145 137 135 135 150 161 160 158 160 162 162 157 153 146 136 125 119
257 228 194 178 193 202 202 208 209 199 189 203 220 225 189 163 163 179 235 316 19 13 69 111 114 122 141 145 144 151 157 153 154 156 160 160 155 157 151 145 137 128 116
294 292 155 163 190 202 210 217 208 205 202 195 197 185 180 184 192 178 197 206 204 316 41 90 110 117 127 131 140 145 148 146 152 160 160 163 158 151 145 140 137 132 123
258 271 114 117 131 192 172 154 154 173 195 181 187 200 197 207 187 165 163 183 190 287 40 34 82 126 130 126 130 132 135 140 141 142 148 148 139 133 144 146 140 133 124
205 202 142 124 133 142 116 109 131 180 158 192 347 77 90 42 138 154 164 161 159 358 17 290 13 105 126 131 131 129 126 126 127 132 142 139 132 130 126 124 126 128 126
166 137 126 113 109 105 105 101 90 100 69 48 12 48 66 39 111 143 151 161 164 187 229 225 193 188 148 138 133 130 127 126 123 122 128 132 126 122 116 110 109 107 109
141 129 122 112 97 76 76 89 84 86 94 55 83 74 42 32 87 110 141 146 149 167 188 199 197 190 158 145 136 129 127 123 123 125 126 129 126 121 117 115 115 112 108
140 142 142 129 111 90 85 88 86 99 99 70 52 90 63 64 83 95 120 132 129 134 149 154 100 120 126 130 129 126 121 122 126 127 125 126 126 124 124 122 121 119 115
147 151 146 137 128 114 99 99 98 94 108 96 55 79 45 55 68 100 121 124 134 126 138 139 107 108 112 143 136 133 130 129 134 131 127 125 128 130 129 124 121 123 125
153 141 140 145 144 133 118 122 125 108 105 115 106 109 101 95 47 60 108 119 122 118 112 131 128 101 90 128 116 121 127 132 143 143 141 138 134 133 140 142 138 131 126
156 155 153 156 157 147 141 144 132 117 112 95 82 105 104 134 161 136 116 126 123 113 110 120 116 107 97 101 121 134 122 124 165 161 157 163 160 156 153 160 163 159 154
165 160 156 159 163 161 172 162 160 151 146 136 49 42 99 117 116 120 125 137 136 131 127 126 127 119 123 136 175 175 157 139 274 185 148 189 180 192 197 196 199 197 193
164 157 165 172 183 204 171 161 161 157 157 154 151 65 74 79 97 110 119 129 143 151 156 152 152 166 185 184 178 170 148 136 253 221 153 231 187 217 223 213 211 209 209
168 164 173 175 186 203 172 167 167 162 164 176 173 155 107 87 87 101 101 96 105 136 155 161 167 187 190 193 178 177 177 175 207 203 154 232 227 236 235 227 219 217 218
179 184 186 185 185 205 185 174 167 158 157 180 178 161 140 127 126 122 111 92 81 97 176 167 178 191 192 188 185 184 179 163 136 194 164 203 231 239 242 234 229 224 223
186 192 189 188 193 214 198 179 169 159 153 174 183 164 153 154 154 137 122 112 87 25 67 131 152 165 169 169 165 141 137 139 204 268 200 179 220 242 251 248 240 233 230
192 189 195 200 198 208 204 186 174 171 172 176 179 190 179 167 162 148 144 142 147 191 109 77 78 92 140 165 167 171 171 166 174 237 219 180 190 163 269 267 242 236 232
Height
1560 1560 1560 1560 1560 1560 1560 1560 1561 1561 1561 1561 1561 1561 1561 1561 1561 1561 1561 1561 1561 1561 1561 1561 1560 1560 1560 1560 1560 1561 1561 1562 1562 1562 1562 1563 1563 1563 1564 1564 1564 1565 1565
1560 1560 1560 1560 1560 1560 1560 1560 1560 1560 1560 1560 1561 1561 1561 1561 1561 1561 1561 1561 1561 1560 1560 1560 1560 1559 1559 1559 1559 1559 1560 1560 1560 1560 1561 1561 1561 1562 1562 1562 1563 1563 1564
1560 1560 1560 1560 1560 1560 1560 1560 1560 1560 1560 1560 1560 1560 1560 1560 1560 1560 1560 1560 1560 1559 1559 1559 1559 1559 1558 1558 1558 1558 1558 1558 1558 1559 1559 1559 1559 1560 1560 1560 1561 1561 1561
1560 1560 1560 1560 1560 1560 1560 1559 1559 1559 1559 1559 1559 1559 1559 1559 1558 1558 1558 1558 1558 1558 1558 1558 1558 1557 1557 1557 1557 1557 1557 1557 1557 1557 1557 1557 1557 1557 1558 1558 1559 1559 1559
1559 1559 1559 1559 1559 1559 1559 1559 1558 1558 1558 1558 1558 1558 1558 1557 1557 1557 1557 1557 1557 1556 1556 1556 1556 1556 1555 1555 1555 1555 1555 1555 1555 1555 1555 1555 1555 1555 1555 1556 1556 1556 1557
1559 1559 1558 1558 1558 1558 1558 1558 1558 1557 1557 1557 1557 1556 1556 1556 1556 1555 1555 1555 1555 1555 1554 1554 1554 1554 1553 1553 1553 1553 1553 1553 1553 1553 1553 1552 1552 1553 1553 1553 1554 1554 1554
1558 1558 1558 1557 1557 1557 1557 1557 1556 1556 1556 1556 1556 1555 1555 1555 1555 1554 1554 1554 1553 1553 1552 1552 1553 1552 1552 1552 1551 1551 1551 1551 1551 1551 1551 1551 1551 1551 1551 1551 1551 1551 1551
1557 1557 1557 1557 1556 1556 1556 1556 1555 1555 1554 1555 1554 1554 1554 1555 1554 1553 1553 1552 1552 1551 1551 1550 1551 1550 1550 1549 1549 1548 1548 1548 1549 1549 1549 1549 1549 1549 1549 1549 1549 1549 1549
1557 1556 1556 1556 1555 1555 1555 1554 1554 1553 1553 1553 1553 1553 1553 1552 1552 1553 1552 1552 1551 1550 1549 1549 1549 1549 1548 1548 1547 1547 1546 1546 1546 1547 1547 1547 1547 1547 1547 1548 1547 1547 1547
1556 1556 1555 1555 1554 1554 1553 1553 1552 1552 1552 1551 1551 1551 1552 1551 1551 1551 1551 1551 1550 1549 1549 1548 1548 1547 1547 1546 1546 1545 1545 1545 1545 1544 1545 1545 1545 1546 1546 1546 1546 1545 1545
1555 1554 1554 1553 1553 1553 1552 1551 1551 1550 1550 1549 1549 1549 1549 1549 1549 1549 1548 1549 1549 1548 1548 1547 1546 1546 1545 1545 1544 1544 1544 1543 1543 1543 1544 1544 1544 1544 1544 1544 1544 1544 1544
1553 1553 1552 1552 1551 1551 1550 1550 1549 1548 1548 1548 1547 1547 1547 1547 1546 1546 1546 1546 1546 1546 1546 1546 1545 1545 1544 1543 1542 1542 1542 1542 1542 1542 1542 1542 1543 1543 1543 1543 1543 1543 1542
1551 1551 1551 1550 1550 1549 1549 1548 1547 1547 1546 1546 1545 1545 1545 1545 1544 1544 1544 1543 1544 1544 1544 1544 1544 1543 1543 1542 1541 1541 1541 1540 1540 1540 1541 1541 1541 1541 1542 1541 1541 1541 1541
1550 1550 1549 1549 1548 1548 1547 1546 1546 1545 1544 1544 1544 1543 1543 1542 1542 1542 1542 1542 1542 1542 1543 1542 1542 1542 1541 1541 1540 1540 1540 1539 1539 1539 1539 1540 1540 1540 1540 1540 1540 1540 1540
1549 1549 1548 1548 1547 1546 1545 1545 1544 1543 1543 1542 1542 1542 1541 1541 1540 1540 1540 1540 1540 1540 1540 1540 1540 1540 1540 1540 1539 1539 1539 1539 1538 1538 1538 1539 1539 1539 1539 1539 1539 1539 1539
1548 1548 1547 1547 1546 1545 1545 1544 1543 1542 1542 1541 1541 1540 1540 1539 1539 1538 1538 1538 1539 1539 1538 1539 1539 1539 1539 1539 1538 1538 1538 1538 1538 1537 1537 1538 1538 1538 1538 1538 1538 1538 1538
1547 1547 1547 1546 1545 1545 1544 1543 1542 1542 1541 1540 1540 1539 1538 1538 1537 1537 1537 1537 1537 1537 1536 1537 1537 1537 1537 1537 1537 1538 1538 1538 1537 1537 1537 1537 1537 1537 1537 1537 1537 1537 1537
1546 1546 1546 1546 1545 1544 1544 1543 1542 1541 1540 1539 1539 1538 1538 1537 1536 1536 1535 1535 1535 1535 1536 1535 1536 1536 1537 1537 1537 1537 1537 1537 1537 1537 1537 1537 1537 1537 1537 1537 1537 1536 1536
1545 1546 1545 1545 1545 1544 1543 1543 1542 1541 1540 1539 1539 1538 1537 1536 1536 1535 1535 1534 1534 1535 1535 1534 1535 1535 1536 1536 1536 1537 1537 1537 1537 1537 1537 1537 1537 1537 1536 1536 1536 1536 1535
1544 1544 1544 1544 1544 1543 1543 1542 1541 1541 1540 1539 1538 1538 1537 1536 1535 1535 1534 1534 1534 1534 1534 1534 1534 1534 1535 1536 1536 1536 1536 1536 1536 1536 1536 1536 1536 1536 1536 1536 1535 1535 1535
1543 1543 1543 1543 1543 1543 1542 1542 1541 1540 1539 1539 1538 1537 1537 1536 1535 1535 1534 1533 1533 1533 1533 1533 1533 1533 1534 1534 1535 1535 1535 1535 1535 1535 1535 1535 1535 1535 1535 1535 1535 1534 1534
1541 1542 1542 1542 1541 1541 1541 1541 1540 1539 1539 1538 1537 1537 1536 1536 1535 1534 1533 1533 1533 1532 1532 1532 1532 1532 1532 1533 1533 1533 1533 1533 1533 1534 1534 1534 1534 1534 1534 1534 1534 1533 1533
1539 1540 1540 1540 1540 1540 1539 1539 1539 1539 1538 1537 1537 1536 1535 1535 1534 1534 1533 1532 1532 1531 1531 1531 1531 1531 1531 1531 1532 1532 1532 1533 1533 1533 1533 1533 1533 1532 1533 1533 1532 1532 1532
1537 1537 1538 1538 1538 1538 1538 1538 1538 1537 1537 1536 1536 1535 1535 1534 1533 1533 1532 1531 1531 1530 1530 1530 1530 1530 1531 1531 1531 1531 1531 1531 1532 1532 1532 1531 1531 1531 1531 1531 1531 1531 1531
1534 1535 1535 1536 1536 1536 1536 1536 1536 1536 1535 1535 1535 1534 1534 1533 1532 1532 1531 1530 1530 1529 1529 1529 1529 1530 1530 1530 1530 1530 1530 1530 1529 1530 1530 1530 1529 1529 1529 1529 1529 1529 1529
1532 1532 1533 1533 1533 1533 1533 1534 1534 1534 1533 1533 1533 1532 1532 1531 1531 1530 1530 1529 1528 1528 1528 1528 1528 1528 1528 1528 1528 1528 1528 1528 1527 1528 1528 1528 1527 1527 1527 1527 1527 1527 1526